STARLINK-1864 (47151 NORAD) Tracking and Keplerian Element Data

This shows tracking and keplerian element data for the satellite.

Feedback or suggestion? Click here.




ElementValue
Catalog47151
NameSTARLINK-1864
Epoch Orbit176
Epoch Day15.91667824
Epoch Year2021
RAAN98.8546
Inclination53.0545
Eccentricity0.0001357
Argument of Perigee60.1408
Mean Anonmoly171.9393
Mean Motion15.49087317
Decay Rate-0.01081696
L11 47151U 20088AF 21015.91667824 -.01081696 00000-0 -21636-1 0 9990
L22 47151 53.0545 98.8546 0001357 60.1408 171.9393 15.49087317 1769

Live tracking and technical data element details for STARLINK-1864 (NORAD 47151). STARLINK-1864 can be tracked NOW for your location showing map with azimuth and elevation plus other details from your city location.

Track the satellite on the map from your city or location and see movement details for azimuth, elevation, latitude, longitude, range, height, and movement on the map or in text.







IsCatalogInMostPopularTable: catalog: 47151, numindb: 22
Update: records affected: 1



GetName: 47151 STARLINK-1864

Hit Count: updated at: Sun, 17 Jan 2021 08:58:28 GMT